Katta Gehege Affenhaus Messungen

Zurück zum Überblick

Zeitpunkt Temperatur Luftfeuchte
08.12.2019 04:52:05 17,8 C 46,0%
08.12.2019 04:45:03 17,9 C 46,0%
08.12.2019 04:38:00 18,0 C 46,0%
08.12.2019 04:31:00 18,0 C 46,0%
08.12.2019 04:23:58 18,0 C 46,0%
08.12.2019 04:16:55 18,0 C 46,0%
08.12.2019 04:09:55 18,1 C 46,0%
08.12.2019 04:02:53 18,2 C 46,0%
08.12.2019 03:55:51 18,3 C 46,0%
08.12.2019 03:48:51 18,3 C 46,0%
08.12.2019 03:41:50 18,5 C 46,0%
08.12.2019 03:34:48 18,7 C 46,0%
08.12.2019 03:27:48 18,9 C 46,0%
08.12.2019 03:20:45 18,8 C 46,0%
08.12.2019 03:13:43 18,6 C 46,0%
08.12.2019 03:06:39 18,5 C 46,0%
08.12.2019 02:59:39 18,7 C 46,0%
08.12.2019 02:52:36 18,9 C 46,0%
08.12.2019 02:45:33 19,0 C 46,0%
08.12.2019 02:38:29 18,9 C 46,0%
08.12.2019 02:31:27 18,8 C 46,0%
08.12.2019 02:24:23 18,7 C 46,0%
08.12.2019 02:17:23 18,6 C 46,0%
08.12.2019 02:10:20 18,7 C 46,0%
08.12.2019 02:03:17 18,9 C 46,0%
08.12.2019 01:56:14 19,0 C 46,0%
08.12.2019 01:49:12 18,9 C 46,0%
08.12.2019 01:42:09 18,8 C 46,0%
08.12.2019 01:35:06 18,8 C 46,0%
08.12.2019 01:28:02 18,9 C 46,0%
08.12.2019 01:21:00 19,1 C 46,0%
08.12.2019 01:14:00 19,1 C 46,0%
08.12.2019 01:06:58 18,9 C 46,0%
08.12.2019 00:59:56 18,8 C 46,0%
08.12.2019 00:52:54 18,8 C 46,0%
08.12.2019 00:45:51 18,9 C 46,0%
08.12.2019 00:44:07 19,0 C 46,0%
08.12.2019 00:31:48 19,1 C 46,0%
08.12.2019 00:24:46 19,0 C 46,0%
08.12.2019 00:17:44 18,9 C 46,0%
08.12.2019 00:16:00 18,8 C 46,0%
08.12.2019 00:03:39 19,0 C 46,0%
08.12.2019 00:01:55 19,0 C 46,0%